QPF
0.00 0.00 0.00 0.00 0.00 0.00 0.00 0.00 0.00 0.00 0.00 0.00 0.00 0.00 0.00 0.00 0.00 0.00 0.00 0.00 0.00 0.00 0.00 0.00 0.00 0.00 0.00 0.00 0.00 0.00 0.00 0.00 0.00 0.00 0.00 0.00 0.00 0.00 0.00 0.00 0.00 0.00
0.00 0.00 0.00 0.00 0.00 0.00 0.00 0.00 0.00 0.00 0.00 0.00 0.00 0.00 0.00 0.00 0.00 0.00 0.00 0.00 0.00 0.00 0.00 0.00 0.00 0.00 0.00 0.00 0.00 0.00 0.00 0.00 0.00 0.00 0.00 0.00 0.00 0.00 0.00 0.00 0.00 0.00
0.00 0.00 0.00 0.00 0.00 0.00 0.00 0.00 0.00 0.00 0.00 0.00 0.00 0.00 0.00 0.00 0.00 0.00 0.00 0.00 0.00 0.00 0.00 0.00 0.00 0.00 0.00 0.00 0.00 0.00 0.00 0.00 0.00 0.00 0.00 0.00 0.00 0.00 0.00 0.00 0.00 0.00
0.00 0.00 0.00 0.00 0.00 0.00 0.00 0.00 0.00 0.00 0.00 0.00 0.00 0.00 0.00 0.00 0.00 0.00 0.00 0.00 0.00 0.00 0.00 0.00 0.00 0.00 0.00 0.00 0.00 0.00 0.00 0.00 0.00 0.00 0.00 0.00 0.00 0.00 0.00 0.00 0.00 0.00
0.00 0.00 0.00 0.00 0.00 0.00 0.00 0.00 0.00 0.00 0.00 0.00 0.00 0.00 0.00 0.00 0.00 0.00 0.00 0.00 0.00 0.00 0.00 0.00 0.00 0.00 0.00 0.00 0.00 0.00 0.00 0.00 0.00 0.00 0.00 0.00 0.00 0.00 0.00 0.00 0.00 0.00
0.00 0.00 0.00 0.00 0.00 0.00 0.00 0.00 0.00 0.00 0.00 0.00 0.00 0.00 0.00 0.00 0.00 0.00 0.00 0.00 0.00 0.00 0.00 0.00 0.00 0.00 0.00 0.00 0.00 0.00 0.00 0.00 0.00 0.00 0.00 0.00 0.00 0.00 0.00 0.00 0.00 0.00
0.00 0.00 0.00 0.00 0.00 0.00 0.00 0.00 0.00 0.00 0.00 0.00 0.00 0.00 0.00 0.00 0.00 0.00 0.00 0.00 0.00 0.00 0.00 0.00 0.00 0.00 0.00 0.00 0.00 0.00 0.00 0.00 0.00 0.00 0.00 0.00 0.00 0.00 0.00 0.00 0.00 0.00
0.00 0.00 0.00 0.00 0.00 0.00 0.00 0.00 0.00 0.00 0.00 0.00 0.00 0.00 0.00 0.00 0.00 0.00 0.00 0.00 0.00 0.00 0.00 0.00 0.00 0.00 0.00 0.00 0.00 0.00 0.00 0.00 0.00 0.00 0.00 0.00 0.00 0.00 0.00 0.00 0.00 0.00
0.00 0.00 0.00 0.00 0.00 0.00 0.00 0.00 0.00 0.00 0.00 0.00 0.00 0.00 0.00 0.00 0.00 0.00 0.00 0.00 0.00 0.00 0.00 0.00 0.00 0.00 0.00 0.00 0.00 0.00 0.00 0.00 0.00 0.00 0.00 0.00 0.00 0.00 0.00 0.00 0.00 0.00
0.00 0.00 0.00 0.00 0.00 0.00 0.00 0.00 0.00 0.00 0.00 0.00 0.00 0.00 0.00 0.00 0.00 0.00 0.00 0.00 0.00 0.00 0.00 0.00 0.00 0.00 0.00 0.00 0.00 0.00 0.00 0.00 0.00 0.00 0.00 0.00 0.00 0.00 0.00 0.00 0.00 0.00
0.00 0.00 0.00 0.00 0.00 0.00 0.00 0.00 0.00 0.00 0.00 0.00 0.00 0.00 0.00 0.00 0.00 0.00 0.00 0.00 0.00 0.00 0.00 0.00 0.00 0.00 0.00 0.00 0.00 0.00 0.00 0.00 0.00 0.00 0.00 0.00 0.00 0.00 0.00 0.00 0.00 0.00
0.00 0.00 0.00 0.00 0.00 0.00 0.00 0.00 0.00 0.00 0.00 0.00 0.00 0.00 0.00 0.00 0.00 0.00 0.00 0.00 0.00 0.00 0.00 0.00 0.00 0.00 0.00 0.00 0.00 0.00 0.00 0.00 0.00 0.00 0.00 0.00 0.00 0.00 0.00 0.00 0.00 0.00
0.00 0.00 0.00 0.00 0.00 0.00 0.00 0.00 0.00 0.00 0.00 0.00 0.00 0.00 0.00 0.00 0.00 0.00 0.00 0.00 0.00 0.00 0.00 0.00 0.00 0.00 0.00 0.00 0.00 0.00 0.00 0.00 0.00 0.00 0.00 0.00 0.00 0.00 0.00 0.00 0.00 0.00
0.00 0.00 0.00 0.00 0.00 0.00 0.00 0.00 0.00 0.00 0.00 0.00 0.00 0.00 0.00 0.00 0.00 0.00 0.00 0.00 0.00 0.00 0.00 0.00 0.00 0.00 0.00 0.00 0.00 0.00 0.00 0.00 0.00 0.00 0.00 0.00 0.00 0.00 0.00 0.00 0.00 0.00
0.00 0.00 0.00 0.00 0.00 0.00 0.00 0.00 0.00 0.00 0.00 0.00 0.00 0.00 0.00 0.00 0.00 0.00 0.00 0.00 0.00 0.00 0.00 0.00 0.00 0.00 0.00 0.00 0.00 0.00 0.00 0.00 0.00 0.00 0.00 0.00 0.00 0.00 0.00 0.00 0.00 0.00
0.00 0.00 0.00 0.00 0.00 0.00 0.00 0.00 0.00 0.00 0.00 0.00 0.00 0.00 0.00 0.00 0.00 0.00 0.00 0.00 0.00 0.00 0.00 0.00 0.00 0.00 0.00 0.00 0.00 0.00 0.00 0.00 0.00 0.00 0.00 0.00 0.00 0.00 0.00 0.00 0.00 0.00
0.00 0.00 0.00 0.00 0.00 0.00 0.00 0.00 0.00 0.00 0.00 0.00 0.00 0.00 0.00 0.00 0.00 0.00 0.00 0.00 0.00 0.00 0.00 0.00 0.00 0.00 0.00 0.00 0.00 0.00 0.00 0.00 0.00 0.00 0.00 0.00 0.00 0.00 0.00 0.00 0.00 0.00
0.00 0.00 0.00 0.00 0.00 0.00 0.00 0.00 0.00 0.00 0.00 0.00 0.00 0.00 0.00 0.00 0.00 0.00 0.00 0.00 0.00 0.00 0.00 0.00 0.00 0.00 0.00 0.00 0.00 0.00 0.00 0.00 0.00 0.00 0.00 0.00 0.00 0.00 0.00 0.00 0.00 0.00
0.00 0.00 0.00 0.00 0.00 0.00 0.00 0.00 0.00 0.00 0.00 0.00 0.00 0.00 0.00 0.00 0.00 0.00 0.00 0.00 0.00 0.00 0.00 0.00 0.00 0.00 0.00 0.00 0.00 0.00 0.00 0.00 0.00 0.00 0.00 0.00 0.00 0.00 0.00 0.00 0.00 0.00
0.00 0.00 0.00 0.00 0.00 0.00 0.00 0.00 0.00 0.00 0.00 0.00 0.00 0.00 0.00 0.00 0.00 0.00 0.00 0.00 0.00 0.00 0.00 0.00 0.00 0.00 0.00 0.00 0.00 0.00 0.00 0.00 0.00 0.00 0.00 0.00 0.00 0.00 0.00 0.00 0.00 0.00
0.00 0.00 0.00 0.00 0.00 0.00 0.00 0.00 0.00 0.00 0.00 0.00 0.00 0.00 0.00 0.00 0.00 0.00 0.00 0.00 0.00 0.00 0.00 0.00 0.00 0.00 0.00 0.00 0.00 0.00 0.00 0.00 0.00 0.00 0.01 0.01 0.00 0.00 0.00 0.00 0.00 0.00
0.00 0.00 0.00 0.00 0.00 0.00 0.00 0.00 0.00 0.00 0.00 0.00 0.00 0.00 0.00 0.00 0.00 0.00 0.00 0.00 0.00 0.00 0.00 0.00 0.00 0.00 0.00 0.00 0.00 0.00 0.00 0.00 0.00 0.00 0.00 0.00 0.00 0.00 0.00 0.00 0.00 0.00
0.00 0.00 0.00 0.00 0.00 0.00 0.00 0.00 0.00 0.00 0.00 0.00 0.00 0.00 0.00 0.00 0.00 0.00 0.00 0.00 0.00 0.00 0.00 0.00 0.00 0.00 0.00 0.00 0.00 0.00 0.00 0.00 0.00 0.00 0.00 0.00 0.00 0.00 0.00 0.00 0.00 0.00
0.00 0.00 0.00 0.00 0.00 0.00 0.00 0.00 0.00 0.00 0.00 0.00 0.00 0.00 0.00 0.00 0.00 0.00 0.00 0.00 0.00 0.00 0.00 0.00 0.00 0.00 0.00 0.00 0.00 0.00 0.00 0.00 0.00 0.00 0.00 0.00 0.00 0.00 0.00 0.00 0.00 0.00
0.00 0.00 0.00 0.00 0.00 0.00 0.00 0.00 0.00 0.00 0.00 0.00 0.00 0.00 0.00 0.00 0.00 0.00 0.00 0.00 0.00 0.00 0.00 0.00 0.00 0.00 0.00 0.00 0.00 0.00 0.00 0.00 0.00 0.00 0.00 0.00 0.00 0.00 0.00 0.00 0.00 0.00
0.00 0.00 0.00 0.00 0.00 0.00 0.00 0.00 0.00 0.00 0.00 0.00 0.00 0.00 0.00 0.00 0.00 0.00 0.00 0.00 0.00 0.00 0.00 0.00 0.00 0.00 0.00 0.00 0.00 0.00 0.00 0.00 0.00 0.00 0.00 0.00 0.00 0.00 0.00 0.00 0.00 0.00
MSLP
1011.27 1011.39 1011.67 1011.99 1012.19 1012.31 1012.59 1012.91 1013.07 1013.31 1013.47 1013.63 1013.99 1014.11 1014.19 1014.23 1014.39 1014.71 1014.91 1015.11 1015.31 1015.59 1015.75 1015.87 1016.03 1016.27 1016.39 1016.55 1016.75 1016.95 1017.19 1017.31 1017.39 1017.39 1017.59 1017.75 1017.91 1018.03 1018.27 1018.35 1018.55 1018.63
1010.95 1011.03 1011.23 1011.51 1011.83 1011.91 1012.11 1012.23 1012.51 1012.71 1012.99 1013.19 1013.31 1013.51 1013.71 1013.95 1014.19 1014.35 1014.63 1014.87 1015.07 1015.35 1015.47 1015.67 1015.87 1016.03 1016.19 1016.43 1016.63 1016.83 1017.07 1017.23 1017.39 1017.31 1017.59 1017.75 1017.75 1017.83 1017.99 1018.15 1018.27 1018.35
1010.63 1010.87 1011.07 1011.35 1011.47 1011.67 1011.83 1011.91 1012.03 1012.23 1012.55 1012.71 1012.87 1013.15 1013.47 1013.59 1013.95 1014.07 1014.27 1014.55 1014.91 1015.11 1015.35 1015.47 1015.67 1015.83 1015.95 1016.15 1016.35 1016.59 1016.83 1017.07 1017.15 1017.15 1017.35 1017.55 1017.63 1017.79 1017.79 1017.95 1018.11 1018.19
1010.15 1010.35 1010.59 1010.79 1010.95 1011.23 1011.39 1011.67 1011.79 1011.99 1012.19 1012.55 1012.75 1012.79 1013.03 1013.31 1013.59 1013.91 1014.11 1014.31 1014.67 1014.91 1015.11 1015.27 1015.43 1015.63 1015.79 1015.91 1016.15 1016.39 1016.51 1016.67 1016.71 1016.91 1017.19 1017.35 1017.47 1017.59 1017.71 1017.83 1017.91 1018.03
1009.63 1009.95 1010.15 1010.39 1010.51 1010.75 1011.03 1011.27 1011.43 1011.63 1011.91 1012.03 1012.23 1012.47 1012.79 1013.07 1013.39 1013.67 1013.91 1014.15 1014.39 1014.71 1014.95 1015.11 1015.23 1015.43 1015.59 1015.83 1015.91 1016.23 1016.35 1016.51 1016.59 1016.79 1017.07 1017.31 1017.31 1017.43 1017.51 1017.63 1017.79 1017.91
1009.03 1009.31 1009.63 1009.91 1010.15 1010.47 1010.75 1010.83 1010.91 1011.19 1011.47 1011.75 1011.91 1012.07 1012.35 1012.59 1012.99 1013.31 1013.59 1013.91 1014.15 1014.39 1014.71 1014.91 1015.07 1015.19 1015.39 1015.59 1015.79 1015.95 1016.15 1016.39 1016.47 1016.67 1016.91 1017.11 1017.15 1017.19 1017.27 1017.43 1017.59 1017.75
1008.67 1008.99 1009.31 1009.51 1009.83 1009.95 1010.23 1010.35 1010.55 1010.71 1010.91 1011.07 1011.39 1011.79 1011.95 1012.35 1012.67 1012.91 1013.19 1013.47 1013.83 1014.11 1014.39 1014.63 1014.83 1014.99 1015.11 1015.31 1015.59 1015.83 1015.99 1016.11 1016.35 1016.55 1016.75 1016.87 1016.99 1017.11 1017.07 1017.19 1017.31 1017.51
1008.07 1008.43 1008.79 1009.11 1009.47 1009.63 1009.83 1009.95 1010.15 1010.31 1010.43 1010.75 1011.11 1011.27 1011.51 1011.91 1012.19 1012.43 1012.71 1013.07 1013.51 1013.79 1014.03 1014.19 1014.35 1014.55 1014.79 1015.03 1015.35 1015.67 1015.87 1015.95 1016.11 1016.35 1016.59 1016.75 1016.87 1017.03 1017.07 1017.11 1017.15 1017.35
1007.51 1007.99 1008.35 1008.79 1009.07 1009.19 1009.39 1009.51 1009.71 1009.87 1009.99 1010.39 1010.67 1010.95 1011.11 1011.35 1011.67 1011.95 1012.31 1012.71 1013.11 1013.35 1013.59 1013.83 1013.99 1014.23 1014.39 1014.67 1014.99 1015.27 1015.51 1015.67 1015.71 1015.91 1016.19 1016.51 1016.71 1016.75 1016.87 1016.99 1017.23 1017.27
1007.07 1007.35 1007.91 1008.31 1008.67 1008.63 1008.87 1008.95 1009.23 1009.47 1009.55 1009.91 1010.15 1010.47 1010.87 1010.95 1011.19 1011.55 1011.95 1012.31 1012.63 1012.91 1013.11 1013.35 1013.67 1013.87 1014.11 1014.35 1014.59 1014.87 1015.15 1015.31 1015.43 1015.59 1015.79 1015.99 1016.27 1016.47 1016.67 1016.87 1016.99 1017.23
1006.67 1006.87 1007.35 1007.75 1007.99 1008.11 1008.31 1008.51 1008.75 1008.99 1009.15 1009.43 1009.79 1010.11 1010.31 1010.63 1010.95 1011.11 1011.55 1011.87 1012.11 1012.31 1012.67 1012.99 1013.23 1013.55 1013.87 1014.11 1014.31 1014.47 1014.71 1014.91 1015.15 1015.35 1015.55 1015.71 1015.91 1016.15 1016.31 1016.55 1016.79 1016.95
1006.15 1006.39 1006.71 1006.99 1007.31 1007.55 1007.75 1008.03 1008.23 1008.47 1008.71 1008.95 1009.19 1009.63 1009.91 1010.15 1010.47 1010.71 1010.91 1011.23 1011.47 1011.83 1012.15 1012.51 1012.83 1013.15 1013.43 1013.67 1013.95 1014.19 1014.47 1014.67 1014.91 1015.19 1015.35 1015.55 1015.71 1015.91 1016.07 1016.27 1016.47 1016.63
1005.59 1005.75 1005.87 1006.23 1006.55 1006.79 1007.11 1007.55 1007.79 1007.91 1008.19 1008.47 1008.59 1008.99 1009.43 1009.83 1009.99 1010.23 1010.39 1010.75 1011.11 1011.51 1011.87 1012.15 1012.55 1012.83 1013.11 1013.35 1013.63 1013.87 1014.19 1014.51 1014.75 1014.99 1015.19 1015.35 1015.47 1015.63 1015.79 1015.95 1016.07 1016.23
1004.83 1004.99 1005.23 1005.43 1005.71 1006.15 1006.67 1006.99 1007.31 1007.51 1007.67 1007.83 1008.19 1008.67 1008.95 1009.19 1009.55 1009.83 1010.07 1010.51 1010.91 1011.19 1011.43 1011.79 1012.15 1012.51 1012.79 1013.03 1013.27 1013.55 1013.91 1014.19 1014.43 1014.71 1014.95 1015.15 1015.27 1015.43 1015.51 1015.59 1015.71 1015.83
1004.23 1004.51 1004.67 1004.95 1005.23 1005.79 1006.31 1006.67 1006.87 1007.03 1007.27 1007.55 1007.83 1008.11 1008.31 1008.63 1009.07 1009.59 1010.15 1010.55 1010.75 1010.99 1011.27 1011.47 1011.83 1012.07 1012.27 1012.59 1012.99 1013.35 1013.55 1013.95 1014.23 1014.47 1014.67 1014.95 1015.15 1015.27 1015.35 1015.39 1015.43 1015.51
1003.71 1004.03 1004.35 1004.55 1004.95 1005.35 1005.71 1006.07 1006.43 1006.71 1007.03 1007.31 1007.51 1007.71 1008.07 1008.47 1008.99 1009.43 1009.87 1010.23 1010.55 1010.79 1010.95 1011.19 1011.39 1011.51 1011.71 1012.03 1012.31 1012.71 1013.23 1013.59 1013.91 1014.15 1014.35 1014.63 1014.91 1015.15 1015.19 1015.19 1015.15 1015.19
1003.35 1003.67 1003.95 1004.31 1004.31 1004.71 1005.19 1005.71 1006.07 1006.39 1006.75 1007.07 1007.31 1007.59 1007.99 1008.39 1008.79 1009.31 1009.55 1009.75 1010.07 1010.35 1010.67 1010.79 1010.91 1011.07 1011.39 1011.75 1012.11 1012.43 1012.83 1013.23 1013.59 1013.83 1014.07 1014.31 1014.55 1014.79 1014.95 1014.95 1014.95 1014.95
1002.71 1003.11 1003.55 1003.75 1004.03 1004.43 1004.71 1005.11 1005.67 1006.19 1006.59 1006.87 1007.19 1007.55 1007.83 1008.15 1008.59 1008.75 1008.99 1009.27 1009.59 1009.91 1010.19 1010.35 1010.55 1010.63 1011.03 1011.47 1011.91 1012.23 1012.47 1012.79 1013.19 1013.55 1013.79 1013.99 1014.15 1014.35 1014.47 1014.63 1014.75 1014.91
1002.23 1002.71 1002.95 1003.31 1003.55 1003.75 1004.27 1004.91 1005.51 1005.99 1006.35 1006.75 1007.07 1007.15 1007.51 1007.91 1008.07 1008.35 1008.67 1008.83 1009.23 1009.59 1009.83 1009.95 1010.11 1010.27 1010.79 1011.27 1011.67 1012.03 1012.27 1012.55 1012.91 1013.15 1013.47 1013.67 1013.83 1013.95 1014.11 1014.27 1014.51 1014.75
1001.71 1002.11 1002.51 1002.71 1002.95 1003.51 1004.07 1004.63 1005.19 1005.63 1005.91 1006.23 1006.63 1006.99 1007.31 1007.55 1007.79 1008.11 1008.31 1008.63 1008.79 1009.11 1009.39 1009.55 1009.75 1010.07 1010.59 1011.07 1011.47 1011.79 1012.07 1012.31 1012.51 1012.79 1012.99 1013.19 1013.35 1013.51 1013.67 1013.91 1014.11 1014.35
1001.23 1001.59 1001.95 1002.27 1002.71 1003.19 1003.75 1004.31 1004.79 1005.27 1005.71 1005.99 1006.31 1006.67 1006.99 1007.27 1007.51 1007.83 1008.03 1008.23 1008.47 1008.67 1009.03 1009.35 1009.43 1009.83 1010.35 1010.75 1011.11 1011.47 1011.75 1011.95 1012.15 1012.39 1012.55 1012.75 1012.87 1013.03 1013.19 1013.39 1013.63 1013.87
1000.47 1000.95 1001.35 1001.83 1002.35 1002.87 1003.43 1003.95 1004.39 1004.79 1005.23 1005.55 1005.99 1006.35 1006.59 1006.87 1007.19 1007.39 1007.67 1007.87 1008.03 1008.35 1008.79 1009.15 1009.23 1009.63 1010.03 1010.43 1010.83 1011.19 1011.47 1011.71 1011.83 1012.19 1012.47 1012.63 1012.67 1012.67 1012.83 1013.03 1013.27 1013.59
999.63 1000.23 1000.83 1001.35 1001.83 1002.51 1002.99 1003.43 1003.87 1004.35 1004.75 1005.07 1005.79 1006.11 1006.51 1006.71 1006.83 1006.91 1007.03 1007.43 1007.83 1008.11 1008.51 1008.83 1009.27 1009.51 1009.79 1010.15 1010.55 1010.79 1011.31 1011.43 1011.59 1011.87 1012.11 1012.27 1012.35 1012.43 1012.63 1012.87 1013.15 1013.39
998.87 999.47 1000.19 1000.79 1001.39 1001.91 1002.31 1002.67 1003.11 1003.63 1004.15 1004.47 1005.19 1005.71 1006.07 1006.11 1006.23 1006.63 1006.83 1007.03 1007.43 1007.83 1008.03 1008.67 1009.11 1009.43 1009.63 1009.95 1010.23 1010.59 1010.75 1011.03 1011.27 1011.59 1011.91 1012.19 1012.39 1012.47 1012.63 1012.87 1013.03 1013.19
998.19 998.91 999.55 1000.23 1000.79 1001.15 1001.59 1002.27 1002.67 1003.07 1003.47 1003.99 1004.43 1004.87 1005.27 1005.59 1005.95 1006.39 1006.79 1006.99 1007.19 1007.51 1007.87 1008.31 1008.83 1009.35 1009.55 1009.63 1009.95 1010.27 1010.51 1010.63 1010.99 1011.43 1011.95 1012.23 1012.47 1012.71 1012.75 1012.95 1013.11 1013.11
997.79 998.47 998.99 999.55 1000.11 1000.59 1001.07 1001.55 1001.95 1002.63 1003.23 1003.67 1004.03 1004.35 1004.95 1005.39 1005.79 1006.19 1006.67 1007.03 1007.15 1007.47 1007.87 1008.03 1008.51 1008.95 1009.31 1009.35 1009.55 1009.91 1010.07 1010.23 1010.67 1011.39 1011.91 1012.27 1012.55 1012.79 1013.07 1013.19 1013.15 1013.23
Thickness
5820 5820 5819 5817 5814 5813 5812 5810 5808 5806 5804 5802 5800 5798 5797 5797 5797 5794 5792 5790 5788 5786 5785 5783 5781 5778 5775 5773 5770 5767 5764 5762 5760 5758 5756 5752 5749 5748 5744 5742 5740 5737
5820 5820 5819 5817 5815 5814 5813 5812 5810 5808 5806 5804 5802 5800 5799 5798 5797 5795 5793 5791 5788 5786 5785 5783 5781 5778 5776 5773 5770 5767 5764 5761 5760 5758 5755 5752 5750 5748 5745 5742 5739 5737
5820 5820 5819 5818 5816 5815 5814 5813 5811 5809 5807 5805 5803 5801 5800 5799 5797 5796 5794 5791 5789 5786 5785 5783 5781 5778 5776 5773 5770 5767 5765 5762 5760 5758 5754 5752 5749 5747 5745 5742 5739 5737
5821 5820 5820 5819 5818 5816 5815 5813 5811 5809 5807 5804 5803 5801 5801 5800 5798 5796 5793 5792 5789 5787 5785 5783 5780 5778 5776 5773 5771 5768 5765 5763 5760 5758 5754 5751 5749 5746 5744 5742 5739 5736
5822 5821 5820 5819 5818 5817 5815 5813 5811 5809 5807 5804 5804 5803 5802 5801 5798 5796 5793 5791 5790 5787 5784 5782 5780 5778 5776 5773 5771 5767 5764 5762 5759 5757 5752 5749 5748 5745 5743 5741 5738 5735
5824 5822 5820 5818 5818 5817 5814 5814 5812 5810 5808 5806 5805 5804 5803 5802 5798 5796 5795 5792 5790 5787 5784 5782 5780 5778 5776 5773 5770 5767 5764 5761 5758 5756 5752 5749 5747 5745 5744 5740 5737 5735
5825 5822 5821 5818 5817 5817 5815 5814 5813 5811 5809 5808 5807 5806 5804 5802 5799 5798 5796 5793 5790 5788 5785 5782 5780 5777 5775 5772 5770 5766 5764 5761 5758 5755 5751 5749 5746 5743 5742 5739 5737 5734
5827 5824 5822 5819 5817 5817 5816 5815 5814 5812 5810 5808 5808 5807 5806 5803 5801 5799 5797 5794 5791 5788 5785 5783 5780 5778 5774 5771 5768 5765 5763 5761 5758 5755 5751 5748 5744 5741 5739 5737 5734 5732
5830 5826 5823 5819 5818 5817 5817 5816 5815 5813 5811 5810 5809 5808 5807 5806 5803 5801 5799 5795 5792 5788 5787 5783 5780 5777 5774 5771 5768 5765 5763 5761 5758 5755 5751 5747 5743 5740 5737 5734 5731 5728
5832 5829 5825 5821 5819 5819 5818 5817 5815 5814 5812 5811 5810 5809 5808 5807 5806 5803 5800 5796 5793 5790 5788 5784 5781 5778 5775 5771 5769 5766 5763 5760 5758 5755 5751 5747 5743 5740 5736 5733 5729 5726
5835 5832 5828 5824 5822 5821 5820 5819 5817 5815 5814 5813 5812 5810 5809 5808 5806 5804 5801 5798 5796 5793 5789 5786 5783 5779 5776 5772 5769 5766 5763 5760 5757 5753 5750 5747 5743 5740 5736 5732 5728 5725
5837 5835 5832 5828 5825 5823 5822 5820 5818 5817 5816 5814 5814 5812 5810 5809 5807 5806 5804 5800 5798 5795 5791 5787 5784 5780 5777 5773 5769 5766 5762 5759 5755 5752 5749 5745 5742 5739 5736 5732 5728 5725
5841 5839 5837 5833 5829 5827 5824 5822 5820 5818 5818 5817 5816 5814 5811 5810 5809 5807 5805 5802 5798 5796 5792 5789 5785 5781 5778 5774 5770 5766 5761 5758 5754 5750 5747 5744 5741 5738 5735 5732 5729 5725
5844 5842 5841 5838 5833 5829 5825 5823 5820 5819 5819 5818 5816 5815 5813 5812 5810 5807 5804 5801 5798 5795 5793 5790 5786 5782 5778 5774 5770 5766 5761 5757 5753 5750 5747 5744 5740 5737 5734 5731 5729 5726
5847 5845 5843 5840 5835 5830 5826 5824 5822 5820 5819 5818 5817 5816 5815 5813 5810 5806 5803 5799 5796 5794 5792 5790 5786 5783 5779 5775 5771 5766 5761 5757 5753 5750 5747 5743 5739 5735 5733 5731 5729 5726
5848 5846 5844 5840 5837 5833 5829 5826 5823 5821 5819 5817 5817 5816 5814 5812 5808 5805 5801 5798 5795 5793 5791 5789 5786 5784 5781 5776 5772 5767 5762 5756 5752 5750 5746 5742 5739 5734 5732 5730 5728 5726
5849 5847 5844 5841 5839 5835 5831 5827 5823 5820 5818 5816 5815 5814 5812 5810 5807 5804 5801 5799 5796 5794 5791 5789 5787 5785 5781 5776 5772 5767 5762 5757 5752 5749 5746 5742 5739 5735 5731 5729 5728 5725
5851 5848 5845 5842 5840 5836 5832 5828 5823 5819 5816 5815 5813 5811 5810 5809 5806 5804 5803 5801 5798 5794 5791 5789 5788 5785 5781 5775 5770 5766 5761 5757 5752 5749 5745 5742 5738 5735 5732 5729 5727 5723
5853 5849 5846 5843 5841 5838 5833 5828 5822 5819 5816 5814 5812 5811 5810 5808 5807 5805 5803 5801 5798 5795 5792 5790 5788 5784 5780 5773 5768 5763 5760 5756 5752 5748 5745 5741 5738 5735 5732 5729 5725 5722
5854 5851 5848 5844 5842 5838 5832 5827 5822 5818 5816 5814 5812 5811 5809 5808 5806 5805 5802 5800 5799 5795 5792 5790 5788 5783 5778 5772 5767 5762 5759 5756 5752 5749 5745 5741 5738 5735 5732 5728 5725 5721
5855 5853 5849 5846 5842 5837 5832 5827 5823 5819 5816 5815 5813 5811 5810 5808 5806 5804 5802 5800 5798 5796 5792 5789 5786 5782 5776 5771 5767 5762 5758 5755 5752 5748 5744 5741 5738 5735 5732 5729 5725 5721
5859 5855 5851 5847 5842 5837 5832 5828 5824 5821 5818 5816 5814 5811 5810 5808 5805 5804 5802 5800 5798 5795 5791 5788 5785 5781 5775 5770 5766 5761 5757 5754 5751 5747 5743 5739 5737 5734 5731 5728 5723 5720
5863 5857 5853 5848 5842 5837 5833 5830 5828 5824 5821 5817 5813 5809 5808 5806 5805 5804 5803 5801 5797 5793 5790 5786 5781 5778 5774 5769 5765 5760 5756 5752 5749 5745 5741 5738 5735 5733 5729 5725 5721 5717
5866 5860 5855 5849 5844 5840 5836 5834 5830 5826 5822 5819 5815 5811 5808 5807 5806 5805 5802 5800 5796 5792 5789 5784 5779 5775 5771 5767 5763 5758 5755 5751 5748 5743 5739 5734 5731 5728 5724 5721 5717 5714
5867 5862 5857 5851 5846 5844 5841 5836 5832 5828 5824 5821 5816 5813 5810 5808 5805 5802 5798 5797 5794 5790 5787 5782 5777 5772 5768 5766 5762 5757 5753 5751 5746 5740 5735 5730 5726 5722 5718 5715 5713 5710
5866 5861 5858 5855 5850 5847 5842 5838 5834 5829 5824 5820 5816 5813 5809 5805 5803 5799 5795 5793 5790 5787 5784 5781 5776 5771 5767 5764 5761 5756 5753 5750 5744 5737 5731 5725 5720 5716 5712 5709 5707 5704